Weather in Vyazovaya

Russia / Oryol Oblast     53°28′11″N   35°45′52″E
temp.,
°C
wind,
m/s
gust,
m/s
humid.,
%
clouds,
%
prec.,
mm/h
press.,
hPa
HPBL,
m
12 may, wed
wed1200:00+8se38935 0.0 1025201
03:00+5ese35920 0.0 102596
06:00+6e24902 0.0 1026100
09:00+11ene457211 0.0 1025617
12:00+14ene3455100 0.0 10221382
15:00+10ne4589100 0.9 1021255
18:00+8ene1297100 4.3 1018156
21:00+7e38966 1.1 1018196
13 may, thu
thu1300:00+6e413955 0.0 1017290
03:00+8ese5139492 0.1 1016474
06:00+8ese4119740 0.4 1016430
09:00+12se698077 0.5 10161044
12:00+12se6873100 0.3 10151003
15:00+13s577299 1.1 10141042
18:00+14ssw35693 0.3 1014871
21:00+9s2287100 0.3 101515
14 may, fri
fri1400:00+7sse22901 0.0 101611
03:00+7ese349398 0.0 101654
06:00+8ese3693100 0.0 1016141
09:00+15ese467678 0.0 1015385
12:00+19ese577170 0.1 10131023
15:00+19se697795 3.2 1012920
18:00+20sse6118014 4.5 1010826
21:00+15sse379272 9.2 1010123
15 may, sat
sat1500:00+14sse2995100 4.7 1010206
03:00+14sse41097100 6.9 1010273
06:00+13se49979 0.0 1009251
09:00+17sse588995 0.5 1009564
12:00+21s58645 0.6 10091392
15:00+21ssw79602 1.5 10091780
18:00+18sw610775 0.8 1010977
21:00+13sw389576 0.9 1011225
16 may, sun
sun1600:00+11sw359699 0.0 1012110
03:00+10sw23941 0.0 101338
06:00+10sw12920 0.0 101570
09:00+15wsw22760 0.0 1015590
12:00+19ssw11576 0.0 10151280
15:00+20e225329 0.0 10151390
18:00+19ese2468100 0.0 1015333
21:00+15ne348052 0.0 101552